Skip Page Navigation
NASA JPL Caltech
NASA Logo - Jet Propulsion Laboratory + View the NASA Portal
+ Center for Near-Earth Object Studies
JPL Home Earth Solar System Stars & Galaxies Technology
JPL Solar System Dynamics
BODIES ORBITS EPHEMERIDES TOOLS PHYSICAL DATA DISCOVERY FAQ SITE MAP
JPL Small-Body Database Browser
Search: [ help ]  
103575 (2000 CS)
Classification: Main-belt Asteroid          SPK-ID: 2103575
Ephemeris | Orbit Diagram | Orbital Elements | Mission Design | Physical Parameters | Discovery Circumstances ]

[ show orbit diagram ]
Orbital Elements at Epoch 2459200.5 (2020-Dec-17.0) TDB
Reference: JPL 17 (heliocentric ecliptic J2000)
 Element Value Uncertainty (1-sigma)   Units 
e .1327710011934368 4.8188e-08  
a 2.232337985001426 6.6828e-09 au
q 1.935948235730647 1.0739e-07 au
i 6.79195872691081 5.0419e-06 deg
node 327.797580494351 3.0532e-05 deg
peri 164.7411475176118 3.7095e-05 deg
M 98.33323616386356 1.8013e-05 deg
tp 2458867.736118091508
(2020-Jan-19.23611809)
6.0867e-05 TDB
period 1218.25541556905
3.34
5.4705e-06
1.498e-08
d
yr
n .2955045349269743 1.3269e-09 deg/d
Q 2.528727734272205 7.57e-09 au
  Orbit Determination Parameters
   # obs. used (total)      750  
   data-arc span      7418 days (20.31 yr)  
   first obs. used      2000-01-30  
   last obs. used      2020-05-22  
   planetary ephem.      DE431  
   SB-pert. ephem.      SB431-N16  
   condition code      0  
   norm. resid. RMS      .50323  
   source      ORB  
   producer      Otto Matic  
   solution date      2020-Nov-12 19:47:48  

Additional Information
 Earth MOID = .950855 au 
 Jupiter MOID = 2.50347 au 
 T_jup = 3.620 
[ show covariance matrix ]

Ephemeris | Orbit Diagram | Orbital Elements | Mission Design | Physical Parameters | Discovery Circumstances ]

Physical Parameter Table
Parameter Symbol Value Units Sigma Reference Notes
absolute magnitude H 16.34   n/a E2021B55  

103575 (2000 CS)          Discovered 2000-Feb-03 by Comba, P. G. at Prescott
Reference: 20051019/Numbers.arcLast Updated: 2005-10-26
Ephemeris | Orbit Diagram | Orbital Elements | Mission Design | Physical Parameters | Discovery Circumstances ]
ABOUT SSD CREDITS/AWARDS PRIVACY/COPYRIGHT GLOSSARY LINKS
FirstGov 2021-Mar-04 19:58 UT
(server date/time)  
NASA Home Page
Site Manager:   Ryan S. Park
Webmaster  Alan B. Chamberlin